Location: Ferchesar
(52.6477°N, 12.4298°E)
Time: 21:56:11
(UTC+02:00)

Transit 4A - Pass Details

Date: 26 February 2021
Orbit: 868 x 976 km, 66.8° (Epoch: 10 April)

Event Time Altitude Azimuth Distance (km) Brightness Sun altitude
Rises 18:34:59 0° 318° (NW) 3,619 11.6 -8.5°
Reaches altitude 10° 18:37:42 10° 325° (NW) 2,655 10.8 -8.9°
Maximum altitude 18:43:35 44° 36° (NE) 1,258 8.4 -9.8°
Enters shadow 18:48:49 12° 106° (ESE) 2,421 9.5 -10.6°
Drops below altitude 10° 18:49:16 10° 108° (ESE) 2,573 - -10.7°
Sets 18:51:51 0° 115° (ESE) 3,496 - -11.1°
